Simultaneous Nadir Overpasses (SNOs) Predictions

Prediction of SNOs between NOAA-19 and TERRA Satellite Orbit:

Table of predicted SNOs for the next 14.0 days since TLE Epoch: 9/27/2015
Index Date (NOAA-19) Time (NOAA-19) Lat,Lon (NOAA-19) SZA (NOAA-19 ) Date (TERRA) Time (TERRA) Lat,Lon (TERRA) SZA (TERRA ) Distance(km) Time Diff (sec)
1 09/29/2015 01:34:34 72.60, 160.91 74.86 09/29/2015 01:35:25 72.60, 161.01 74.87 3.43 51
2 09/29/2015 02:25:30 -72.47, -31.56 105.25 09/29/2015 02:24:55 -72.48, -31.58 105.25 0.68 35
3 10/01/2015 07:08:47 -72.53,-102.47 104.33 10/01/2015 07:09:07 -72.56,-102.47 104.30 3.42 20
4 10/01/2015 07:59:48 72.36, 65.12 75.53 10/01/2015 07:58:35 72.41, 64.89 75.56 9.71 73
5 10/03/2015 11:52:07 -72.75,-173.70 103.27 10/03/2015 11:53:18 -72.70,-173.28 103.30 14.99 71
6 10/03/2015 12:43:07 72.50, -5.95 76.52 10/03/2015 12:42:47 72.49, -6.02 76.50 2.67 20
7 10/05/2015 17:26:25 72.60, -76.93 77.46 10/05/2015 17:26:58 72.61, -76.85 77.48 3.20 33
8 10/05/2015 18:17:20 -72.50, 90.55 102.62 10/05/2015 18:16:28 -72.50, 90.57 102.63 0.77 52
9 10/07/2015 22:09:54 73.25,-149.15 78.91 10/07/2015 22:11:01 73.15,-146.86 78.91 74.44 67
10 10/07/2015 23:00:37 -72.57, 19.62 101.71 10/07/2015 23:00:40 -72.56, 19.63 101.72 1.07 3
11 10/07/2015 23:51:26 71.73,-171.46 77.55 10/07/2015 23:50:20 71.76,-174.15 77.45 94.02 66
12 10/10/2015 03:43:54 -72.65, -51.33 100.79 10/10/2015 03:44:51 -72.67, -51.23 100.76 3.80 57
13 10/10/2015 04:34:58 72.54, 116.13
